SCP
0 0 0 0 0 0 0 0 0 0 0 0 0 0 0 0 0 0 0 0 0 0 0 0 0 0 0 0 0 0 0 0 0 0 0 0 0 0 0 0 0 0 0
0 0 0 0 0 0 0 0 0 0 0 0 0 0 0 0 0 0 0 0 0 0 0 0 0 0 0 0 0 0 0 0 0 0 0 0 0 0 0 0 0 0 0
0 0 0 0 0 0 0 0 0 0 0 0 0 0 0 0 0 0 0 0 0 0 0 0 0 0 0 0 0 0 0 0 0 0 0 0 0 0 0 0 0 0 0
0 0 0 0 0 0 0 0 0 0 0 0 0 0 0 0 0 0 0 0 0 0 0 0 0 0 0 0 0 0 0 0 0 0 0 0 0 0 0 0 0 0 0
0 0 0 0 0 0 0 0 0 0 0 0 0 0 0 0 0 0 0 0 0 0 0 0 0 0 0 0 0 0 0 0 0 0 0 0 0 0 0 0 0 0 0
0 0 0 0 0 0 0 0 0 0 0 0 0 0 0 0 0 0 0 0 0 0 0 0 0 0 0 0 0 0 0 0 0 0 0 0 0 0 0 0 0 0 0
0 -0 -0 -0 0 0 0 0 0 0 0 0 0 0 0 0 0 0 0 0 0 0 0 0 0 0 0 0 0 0 0 0 0 0 0 0 0 0 0 0 0 0 0
-0 -0 0 0 0 0 0 0 0 0 0 0 0 0 0 0 0 0 0 0 0 0 0 0 0 0 0 0 0 0 0 0 0 0 0 0 0 0 0 0 0 0 0
0 0 0 0 0 0 0 0 0 0 0 0 0 0 0 0 0 0 0 0 0 0 0 0 0 0 0 0 0 0 0 0 0 0 0 0 0 0 0 0 0 0 0
0 0 0 0 0 0 0 0 0 0 0 0 0 0 0 0 0 0 0 0 0 0 0 0 0 0 0 0 0 0 0 0 0 0 0 0 0 0 0 0 0 0 0
0 0 0 0 0 0 0 0 0 0 0 0 0 0 0 0 0 0 0 0 0 0 0 0 0 0 0 0 0 0 0 0 0 0 0 0 0 0 0 0 0 0 0
0 0 0 0 0 0 0 0 0 0 0 0 0 0 0 0 0 0 0 0 0 0 0 0 0 0 0 0 0 0 0 0 0 0 0 0 0 0 0 0 0 0 0
0 0 0 0 0 0 0 0 0 0 0 0 0 0 0 0 0 0 0 0 0 0 0 0 0 0 0 0 0 0 0 0 0 0 0 0 0 0 0 0 0 0 0
0 0 0 0 0 0 0 0 0 0 0 0 0 0 0 0 0 0 0 0 0 0 0 0 0 0 0 0 0 0 0 0 0 0 0 0 0 0 0 0 0 0 0
0 0 0 0 0 0 0 0 0 0 0 0 0 0 0 0 0 0 0 0 0 0 0 0 0 0 0 0 0 0 0 0 0 0 0 0 0 0 0 0 0 0 0
0 0 0 0 0 0 0 0 0 0 0 0 0 0 0 0 0 0 0 0 0 0 0 0 0 0 0 0 0 0 0 0 0 0 0 0 0 0 0 0 0 0 0
0 0 0 0 0 0 0 0 0 0 0 0 0 0 0 0 0 0 0 0 0 0 0 0 0 0 0 0 0 0 0 0 0 0 0 0 0 0 0 0 0 0 0
0 0 0 0 0 0 0 0 0 0 0 0 0 0 0 0 0 0 0 0 0 0 0 0 0 0 0 0 0 0 0 0 0 0 0 0 0 0 0 0 0 0 0
0 0 0 0 0 0 0 0 0 0 0 0 0 0 0 0 0 0 0 0 0 0 0 0 0 0 0 0 0 0 0 0 0 0 0 0 0 0 0 0 0 0 0
0 0 0 0 0 0 0 0 0 0 0 0 0 0 0 0 0 0 0 0 0 0 0 0 0 0 0 0 0 0 0 0 0 0 0 0 0 0 0 0 0 0 0
0 0 0 0 0 0 0 0 0 0 0 0 0 0 0 0 0 0 0 0 0 0 0 0 0 0 0 0 0 0 0 0 0 0 0 0 0 0 0 0 0 0 0
0 0 0 0 0 0 0 0 0 0 0 0 0 0 0 0 0 0 0 0 0 0 0 0 0 0 0 0 0 0 0 0 0 0 0 0 0 0 0 0 0 0 0
0 0 0 0 0 0 0 0 0 0 0 0 0 0 0 0 0 0 0 0 0 0 0 0 0 0 0 0 0 0 0 0 0 0 0 0 0 0 0 0 0 0 0
0 0 0 0 0 0 0 0 0 0 0 0 0 0 0 0 0 0 0 0 0 0 0 0 0 0 0 0 0 0 0 0 0 0 0 0 0 0 0 0 0 0 0
0 0 0 0 0 0 0 -0 0 0 0 0 0 0 0 0 0 0 0 0 0 0 0 0 0 0 0 0 0 0 0 0 0 0 0 0 0 0 0 0 0 0 0
0 0 0 0 0 0 -0 -0 0 0 0 0 0 0 0 0 0 0 0 0 0 0 0 0 0 0 0 0 0 0 0 0 0 0 0 0 0 0 0 0 0 0 0
Wind_Speed_500mb
44 46 45 45 46 49 51 52 53 54 55 55 55 56 55 56 55 54 52 48 47 47 47 47 49 43 45 59 51 40 33 31 32 32 27 26 28 26 23 22 20 21 19
44 46 47 46 46 49 52 57 58 61 62 63 64 61 62 61 60 59 58 56 53 51 49 47 48 47 48 53 57 40 36 35 36 32 31 30 29 29 25 23 21 21 20
43 46 49 49 51 53 55 58 61 64 68 70 73 71 70 66 64 63 62 62 59 56 54 52 49 46 49 56 57 41 39 37 39 34 36 34 33 28 29 27 25 21 20
51 53 56 56 58 59 60 61 64 68 70 72 74 74 74 73 71 68 66 64 63 61 57 56 52 48 52 61 56 45 42 41 38 41 37 36 33 31 29 26 24 21 19
59 64 66 67 69 70 70 71 71 70 77 79 82 84 83 80 78 75 73 68 65 63 61 58 56 57 58 56 48 48 42 44 43 46 41 37 34 32 29 26 23 21 18
65 67 68 69 71 74 75 75 76 77 77 80 83 90 92 92 89 84 78 72 68 65 63 61 58 62 71 70 53 49 45 45 46 46 42 38 36 34 30 27 22 17 14
76 78 78 77 74 72 72 72 75 80 82 76 81 90 94 96 101 88 77 68 63 61 63 63 61 63 70 72 65 53 48 48 48 44 44 39 34 32 28 24 23 20 16
83 83 82 82 79 79 76 72 70 75 77 55 54 59 61 76 67 56 40 41 43 48 53 56 61 64 67 70 67 60 54 50 48 49 45 42 39 37 31 28 26 22 18
80 78 77 75 74 72 72 70 69 67 79 71 51 46 40 42 53 58 52 52 53 53 47 41 47 59 64 68 65 63 60 56 55 51 49 43 40 37 34 32 30 29 25
83 78 75 74 74 75 77 75 68 68 68 79 69 54 63 77 80 80 61 57 49 51 51 59 58 52 60 65 66 66 64 68 64 54 52 48 44 40 39 37 33 34 32
80 72 67 65 65 67 69 71 75 76 70 70 72 67 68 72 75 78 79 70 68 72 69 70 66 56 54 63 66 66 66 68 68 62 58 54 51 48 43 39 36 35 32
81 73 68 66 66 68 70 73 73 73 74 73 70 65 70 70 74 69 69 72 73 74 63 67 75 70 61 62 66 66 66 68 67 64 62 58 52 49 45 40 37 34 32
79 75 70 69 69 70 71 72 72 72 69 68 63 62 65 69 72 76 82 88 72 63 68 67 72 69 62 56 64 68 69 68 67 65 63 58 53 49 47 41 38 34 34
76 74 73 71 70 70 71 70 71 70 67 62 59 63 71 64 71 71 77 77 57 54 63 64 54 65 66 66 55 63 65 66 66 64 62 57 51 50 46 41 38 40 39
75 74 72 73 72 71 69 69 72 71 66 58 63 62 65 77 73 68 71 75 67 37 26 52 47 51 54 53 56 57 58 59 60 61 60 59 58 59 58 51 46 44 41
76 75 74 72 72 71 70 68 69 69 63 62 61 63 69 70 65 65 62 69 66 60 52 30 49 49 54 55 52 50 54 56 56 55 54 53 54 57 59 57 55 54 52
80 76 76 76 75 74 73 72 69 68 60 60 62 61 63 66 62 62 59 59 57 57 57 48 38 35 41 44 48 49 46 46 47 47 49 51 53 55 57 58 58 57 54
76 70 69 76 80 80 78 77 73 69 62 59 62 66 66 65 61 61 53 54 53 52 54 52 53 48 47 50 50 42 42 44 46 46 47 49 51 53 56 57 57 55 54
72 74 68 67 79 83 83 79 74 65 59 62 66 74 75 66 64 57 53 53 48 48 48 50 39 50 48 47 38 37 43 42 41 41 43 44 44 46 48 50 50 49 50
75 74 70 81 81 89 87 79 64 60 62 61 65 70 72 65 59 48 56 45 44 39 35 30 28 29 30 34 34 33 30 30 30 31 32 35 37 40 42 46 46 45 47
78 73 80 90 89 85 71 60 63 65 63 68 61 67 62 55 51 45 48 44 40 35 32 29 28 31 35 36 38 31 29 30 34 36 37 39 38 39 38 39 42 41 41
80 74 82 79 73 67 62 60 56 63 67 60 61 64 62 51 46 43 46 45 46 45 42 37 35 38 37 33 28 35 37 32 23 24 27 31 33 31 30 37 40 42 42
80 79 76 67 65 66 59 59 60 57 56 54 54 57 59 40 32 31 33 34 29 36 39 32 26 25 30 33 34 31 28 25 22 21 25 30 25 26 28 35 38 42 44
73 70 67 60 67 70 60 57 55 51 46 46 47 46 45 33 29 28 24 27 32 30 21 23 23 21 22 20 25 22 21 20 21 20 19 26 21 25 26 26 29 37 44
69 72 67 64 73 56 50 53 51 48 49 50 38 37 34 26 8 16 18 16 17 24 30 33 33 33 31 32 31 25 23 20 22 21 20 26 23 19 26 20 17 31 37
68 78 66 48 52 53 58 52 47 51 47 39 39 44 20 24 19 14 16 18 21 23 26 25 23 18 18 20 24 22 22 22 24 20 10 9 21 27 12 6 2 11 26
Wind_Direction_500mb
320 319 316 312 310 307 305 303 301 299 297 295 294 294 293 291 289 286 283 279 277 276 274 270 260 242 247 249 249 243 239 239 237 230 223 215 204 204 201 198 196 202 192
326 323 321 318 313 306 304 303 302 301 299 297 294 293 291 289 288 288 285 282 279 276 271 265 259 242 243 241 250 238 237 234 231 225 217 212 208 202 201 200 198 204 213
332 329 326 321 314 308 304 301 299 296 295 293 292 290 289 287 285 283 282 281 279 277 274 266 258 246 237 234 245 239 234 228 231 221 214 209 208 209 206 211 218 224 227
328 325 322 319 316 312 309 304 301 296 294 292 291 289 287 285 282 280 279 278 276 273 271 268 259 242 234 233 239 237 232 228 225 222 212 212 210 215 217 220 224 227 231
323 321 319 316 312 308 305 303 300 298 295 293 292 290 288 284 282 279 277 275 273 270 268 265 257 237 233 232 234 234 228 225 220 220 210 210 214 215 219 222 225 227 231
322 319 318 316 314 311 309 306 302 297 295 295 292 288 287 286 283 280 278 275 272 268 264 260 254 240 236 239 237 235 226 221 216 215 212 209 216 217 217 222 225 229 229
326 325 324 321 318 316 315 314 311 307 303 303 300 294 290 288 286 282 280 277 272 267 260 256 253 243 238 240 238 228 226 220 216 214 216 211 214 218 214 220 229 227 229
327 326 324 323 322 320 319 319 317 313 307 311 306 303 300 295 288 292 279 276 268 262 260 256 250 243 237 237 235 228 219 221 219 218 217 214 213 216 215 220 231 235 233
324 323 322 321 320 320 319 320 320 319 313 308 301 286 293 276 297 292 281 267 262 259 265 271 260 243 236 235 234 230 220 212 213 213 213 215 215 221 226 224 227 237 243
324 323 320 319 318 319 320 320 319 317 315 309 303 284 276 275 280 288 275 274 270 263 260 260 262 253 239 234 233 230 226 217 215 211 214 217 221 217 223 230 230 231 236
323 322 319 317 317 317 316 315 316 315 314 309 304 294 284 278 277 273 278 269 269 261 256 259 259 256 248 236 233 230 225 224 225 227 228 228 229 230 226 224 227 232 237
323 322 319 317 317 318 318 315 313 312 309 308 305 294 284 280 279 274 274 269 264 262 258 258 255 252 247 239 231 228 225 224 226 227 229 231 233 234 232 227 226 228 235
322 322 320 319 319 318 316 316 314 312 308 306 305 298 290 283 281 279 273 278 267 267 257 256 254 247 240 236 229 226 225 225 225 226 228 231 234 237 235 227 228 232 235
322 322 320 318 317 317 317 316 314 312 309 301 298 296 293 288 291 284 278 279 270 263 257 253 249 242 239 233 230 226 224 224 224 225 227 231 236 238 235 229 232 234 238
321 321 320 319 317 316 316 317 314 314 312 303 291 290 292 289 287 286 278 271 272 294 266 237 227 222 212 213 218 217 217 217 219 223 229 236 237 237 235 234 238 243 248
317 316 317 318 318 317 315 314 312 311 308 308 307 298 292 292 290 285 285 275 267 275 276 269 237 214 208 211 216 219 222 222 222 224 227 229 229 233 237 241 245 250 255
315 315 314 315 317 319 318 314 310 311 307 300 299 302 297 290 288 288 289 279 269 267 266 264 244 218 208 215 207 208 212 216 221 225 228 230 232 235 241 245 249 250 251
313 311 310 312 313 313 316 317 312 310 309 307 310 312 306 297 288 286 282 278 271 264 261 255 242 219 207 205 200 207 227 235 236 237 238 239 240 240 243 246 248 248 248
312 311 307 309 313 313 311 313 310 308 309 309 309 312 309 303 285 286 281 269 263 261 254 244 218 200 199 206 220 230 239 241 241 240 242 243 243 242 243 244 247 248 247
311 314 306 310 310 314 312 310 308 303 304 305 304 308 303 298 283 280 278 260 254 250 246 239 233 228 228 233 233 226 223 231 231 236 238 239 239 241 243 245 247 250 250
312 307 305 307 309 313 311 309 304 305 305 303 302 312 302 298 282 279 259 255 242 231 226 223 219 213 216 223 233 243 250 245 243 243 243 243 241 240 240 243 246 248 249
315 308 308 309 310 311 309 307 302 301 299 301 310 307 301 295 280 287 248 250 238 226 221 214 216 226 233 235 239 238 233 228 233 213 209 217 229 240 250 251 249 247 247
316 313 313 314 316 317 313 309 304 300 303 302 306 310 304 296 267 254 238 229 230 230 231 223 216 231 238 238 229 225 221 236 233 219 240 251 253 257 248 244 241 240 240
324 322 320 325 315 315 313 312 310 307 303 315 319 313 305 311 276 233 225 233 232 226 217 225 221 234 238 238 237 231 248 230 233 241 252 278 277 273 263 257 258 252 246
329 329 323 309 317 327 325 320 320 315 323 316 315 325 309 317 266 220 209 212 216 227 228 236 240 241 244 244 243 232 215 235 244 259 266 280 285 280 289 301 272 245 238
318 315 321 334 337 337 341 326 321 320 325 317 326 325 312 288 277 245 249 250 236 231 232 217 205 204 203 208 219 223 217 236 258 283 262 255 280 300 308 318 6 261 233
Wind_Speed_850mb
44 46 45 45 46 49 51 52 53 54 55 55 55 56 55 56 55 54 52 48 47 47 47 47 49 43 45 59 51 40 33 31 32 32 27 26 28 26 23 22 20 21 19
44 46 47 46 46 49 52 57 58 61 62 63 64 61 62 61 60 59 58 56 53 51 49 47 48 47 48 53 57 40 36 35 36 32 31 30 29 29 25 23 21 21 20
43 46 49 49 51 53 55 58 61 64 68 70 73 71 70 66 64 63 62 62 59 56 54 52 49 46 49 56 57 41 39 37 39 34 36 34 33 28 29 27 25 21 20
51 53 56 56 58 59 60 61 64 68 70 72 74 74 74 73 71 68 66 64 63 61 57 56 52 48 52 61 56 45 42 41 38 41 37 36 33 31 29 26 24 21 19
59 64 66 67 69 70 70 71 71 70 77 79 82 84 83 80 78 75 73 68 65 63 61 58 56 57 58 56 48 48 42 44 43 46 41 37 34 32 29 26 23 21 18
65 67 68 69 71 74 75 75 76 77 77 80 83 90 92 92 89 84 78 72 68 65 63 61 58 62 71 70 53 49 45 45 46 46 42 38 36 34 30 27 22 17 14
76 78 78 77 74 72 72 72 75 80 82 76 81 90 94 96 101 88 77 68 63 61 63 63 61 63 70 72 65 53 48 48 48 44 44 39 34 32 28 24 23 20 16
83 83 82 82 79 79 76 72 70 75 77 55 54 59 61 76 67 56 40 41 43 48 53 56 61 64 67 70 67 60 54 50 48 49 45 42 39 37 31 28 26 22 18
80 78 77 75 74 72 72 70 69 67 79 71 51 46 40 42 53 58 52 52 53 53 47 41 47 59 64 68 65 63 60 56 55 51 49 43 40 37 34 32 30 29 25
83 78 75 74 74 75 77 75 68 68 68 79 69 54 63 77 80 80 61 57 49 51 51 59 58 52 60 65 66 66 64 68 64 54 52 48 44 40 39 37 33 34 32
80 72 67 65 65 67 69 71 75 76 70 70 72 67 68 72 75 78 79 70 68 72 69 70 66 56 54 63 66 66 66 68 68 62 58 54 51 48 43 39 36 35 32
81 73 68 66 66 68 70 73 73 73 74 73 70 65 70 70 74 69 69 72 73 74 63 67 75 70 61 62 66 66 66 68 67 64 62 58 52 49 45 40 37 34 32
79 75 70 69 69 70 71 72 72 72 69 68 63 62 65 69 72 76 82 88 72 63 68 67 72 69 62 56 64 68 69 68 67 65 63 58 53 49 47 41 38 34 34
76 74 73 71 70 70 71 70 71 70 67 62 59 63 71 64 71 71 77 77 57 54 63 64 54 65 66 66 55 63 65 66 66 64 62 57 51 50 46 41 38 40 39
75 74 72 73 72 71 69 69 72 71 66 58 63 62 65 77 73 68 71 75 67 37 26 52 47 51 54 53 56 57 58 59 60 61 60 59 58 59 58 51 46 44 41
76 75 74 72 72 71 70 68 69 69 63 62 61 63 69 70 65 65 62 69 66 60 52 30 49 49 54 55 52 50 54 56 56 55 54 53 54 57 59 57 55 54 52
80 76 76 76 75 74 73 72 69 68 60 60 62 61 63 66 62 62 59 59 57 57 57 48 38 35 41 44 48 49 46 46 47 47 49 51 53 55 57 58 58 57 54
76 70 69 76 80 80 78 77 73 69 62 59 62 66 66 65 61 61 53 54 53 52 54 52 53 48 47 50 50 42 42 44 46 46 47 49 51 53 56 57 57 55 54
72 74 68 67 79 83 83 79 74 65 59 62 66 74 75 66 64 57 53 53 48 48 48 50 39 50 48 47 38 37 43 42 41 41 43 44 44 46 48 50 50 49 50
75 74 70 81 81 89 87 79 64 60 62 61 65 70 72 65 59 48 56 45 44 39 35 30 28 29 30 34 34 33 30 30 30 31 32 35 37 40 42 46 46 45 47
78 73 80 90 89 85 71 60 63 65 63 68 61 67 62 55 51 45 48 44 40 35 32 29 28 31 35 36 38 31 29 30 34 36 37 39 38 39 38 39 42 41 41
80 74 82 79 73 67 62 60 56 63 67 60 61 64 62 51 46 43 46 45 46 45 42 37 35 38 37 33 28 35 37 32 23 24 27 31 33 31 30 37 40 42 42
80 79 76 67 65 66 59 59 60 57 56 54 54 57 59 40 32 31 33 34 29 36 39 32 26 25 30 33 34 31 28 25 22 21 25 30 25 26 28 35 38 42 44
73 70 67 60 67 70 60 57 55 51 46 46 47 46 45 33 29 28 24 27 32 30 21 23 23 21 22 20 25 22 21 20 21 20 19 26 21 25 26 26 29 37 44
69 72 67 64 73 56 50 53 51 48 49 50 38 37 34 26 8 16 18 16 17 24 30 33 33 33 31 32 31 25 23 20 22 21 20 26 23 19 26 20 17 31 37
68 78 66 48 52 53 58 52 47 51 47 39 39 44 20 24 19 14 16 18 21 23 26 25 23 18 18 20 24 22 22 22 24 20 10 9 21 27 12 6 2 11 26
Wind_Direction_850mb
320 319 316 312 310 307 305 303 301 299 297 295 294 294 293 291 289 286 283 279 277 276 274 270 260 242 247 249 249 243 239 239 237 230 223 215 204 204 201 198 196 202 192
326 323 321 318 313 306 304 303 302 301 299 297 294 293 291 289 288 288 285 282 279 276 271 265 259 242 243 241 250 238 237 234 231 225 217 212 208 202 201 200 198 204 213
332 329 326 321 314 308 304 301 299 296 295 293 292 290 289 287 285 283 282 281 279 277 274 266 258 246 237 234 245 239 234 228 231 221 214 209 208 209 206 211 218 224 227
328 325 322 319 316 312 309 304 301 296 294 292 291 289 287 285 282 280 279 278 276 273 271 268 259 242 234 233 239 237 232 228 225 222 212 212 210 215 217 220 224 227 231
323 321 319 316 312 308 305 303 300 298 295 293 292 290 288 284 282 279 277 275 273 270 268 265 257 237 233 232 234 234 228 225 220 220 210 210 214 215 219 222 225 227 231
322 319 318 316 314 311 309 306 302 297 295 295 292 288 287 286 283 280 278 275 272 268 264 260 254 240 236 239 237 235 226 221 216 215 212 209 216 217 217 222 225 229 229
326 325 324 321 318 316 315 314 311 307 303 303 300 294 290 288 286 282 280 277 272 267 260 256 253 243 238 240 238 228 226 220 216 214 216 211 214 218 214 220 229 227 229
327 326 324 323 322 320 319 319 317 313 307 311 306 303 300 295 288 292 279 276 268 262 260 256 250 243 237 237 235 228 219 221 219 218 217 214 213 216 215 220 231 235 233
324 323 322 321 320 320 319 320 320 319 313 308 301 286 293 276 297 292 281 267 262 259 265 271 260 243 236 235 234 230 220 212 213 213 213 215 215 221 226 224 227 237 243
324 323 320 319 318 319 320 320 319 317 315 309 303 284 276 275 280 288 275 274 270 263 260 260 262 253 239 234 233 230 226 217 215 211 214 217 221 217 223 230 230 231 236
323 322 319 317 317 317 316 315 316 315 314 309 304 294 284 278 277 273 278 269 269 261 256 259 259 256 248 236 233 230 225 224 225 227 228 228 229 230 226 224 227 232 237
323 322 319 317 317 318 318 315 313 312 309 308 305 294 284 280 279 274 274 269 264 262 258 258 255 252 247 239 231 228 225 224 226 227 229 231 233 234 232 227 226 228 235
322 322 320 319 319 318 316 316 314 312 308 306 305 298 290 283 281 279 273 278 267 267 257 256 254 247 240 236 229 226 225 225 225 226 228 231 234 237 235 227 228 232 235
322 322 320 318 317 317 317 316 314 312 309 301 298 296 293 288 291 284 278 279 270 263 257 253 249 242 239 233 230 226 224 224 224 225 227 231 236 238 235 229 232 234 238
321 321 320 319 317 316 316 317 314 314 312 303 291 290 292 289 287 286 278 271 272 294 266 237 227 222 212 213 218 217 217 217 219 223 229 236 237 237 235 234 238 243 248
317 316 317 318 318 317 315 314 312 311 308 308 307 298 292 292 290 285 285 275 267 275 276 269 237 214 208 211 216 219 222 222 222 224 227 229 229 233 237 241 245 250 255
315 315 314 315 317 319 318 314 310 311 307 300 299 302 297 290 288 288 289 279 269 267 266 264 244 218 208 215 207 208 212 216 221 225 228 230 232 235 241 245 249 250 251
313 311 310 312 313 313 316 317 312 310 309 307 310 312 306 297 288 286 282 278 271 264 261 255 242 219 207 205 200 207 227 235 236 237 238 239 240 240 243 246 248 248 248
312 311 307 309 313 313 311 313 310 308 309 309 309 312 309 303 285 286 281 269 263 261 254 244 218 200 199 206 220 230 239 241 241 240 242 243 243 242 243 244 247 248 247
311 314 306 310 310 314 312 310 308 303 304 305 304 308 303 298 283 280 278 260 254 250 246 239 233 228 228 233 233 226 223 231 231 236 238 239 239 241 243 245 247 250 250
312 307 305 307 309 313 311 309 304 305 305 303 302 312 302 298 282 279 259 255 242 231 226 223 219 213 216 223 233 243 250 245 243 243 243 243 241 240 240 243 246 248 249
315 308 308 309 310 311 309 307 302 301 299 301 310 307 301 295 280 287 248 250 238 226 221 214 216 226 233 235 239 238 233 228 233 213 209 217 229 240 250 251 249 247 247
316 313 313 314 316 317 313 309 304 300 303 302 306 310 304 296 267 254 238 229 230 230 231 223 216 231 238 238 229 225 221 236 233 219 240 251 253 257 248 244 241 240 240
324 322 320 325 315 315 313 312 310 307 303 315 319 313 305 311 276 233 225 233 232 226 217 225 221 234 238 238 237 231 248 230 233 241 252 278 277 273 263 257 258 252 246
329 329 323 309 317 327 325 320 320 315 323 316 315 325 309 317 266 220 209 212 216 227 228 236 240 241 244 244 243 232 215 235 244 259 266 280 285 280 289 301 272 245 238
318 315 321 334 337 337 341 326 321 320 325 317 326 325 312 288 277 245 249 250 236 231 232 217 205 204 203 208 219 223 217 236 258 283 262 255 280 300 308 318 6 261 233